Home > Products > Valid Products > OSO

000
SXUS52 KJAX 300913
OSOJAX
OTHER SURFACE OBSERVATIONS
NATIONAL WEATHER SERVICE JACKSONVILLE FL
500 AM EDT MON MAY 30 2016

FLZ020>025-030>033-035>038-040-301000-
...FLORIDA...

CITY           SKY/WX    TMP DP  RH WIND       PRES   REMARKS
CECIL FIELD      N/A     63  63 100 CALM      29.98S
HERLONG FIELD  NOT AVBL
FERNANDINA BCH NOT AVBL
LAKE CITY      FAIR      66  66 100 CALM      29.98S FOG
JUNIPER SPGS   NOT AVBL
BUNNELL        NOT AVBL
KEYSTONE HGTS  FAIR      70  70 100 CALM      29.99R
$$

GAZ132>136-149>154-162>166-301000-
...GEORGIA...

CITY           SKY/WX    TMP DP  RH WIND       PRES   REMARKS
JESUP          CLOUDY    66  59  77 NE3       29.97S
HOMERVILLE     CLOUDY    70  66  88 CALM      29.99S
SWAINSBORO     FAIR      66  63  88 CALM      29.99R
CORDELE        NOT AVBL
EASTMAN          N/A    N/A N/A N/A CALM      30.01F FOG
$$

PLEASE NOTE:  THESE OBSERVATIONS ARE NOT QUALITY CONTROLLED AND MAY
NOT BE AVAILABLE AT ALL TIMES.
$$






000
SXUS52 KJAX 300513
OSOJAX
OTHER SURFACE OBSERVATIONS
NATIONAL WEATHER SERVICE JACKSONVILLE FL
100 AM EDT MON MAY 30 2016

FLZ020>025-030>033-035>038-040-300600-
...FLORIDA...

CITY           SKY/WX    TMP DP  RH WIND       PRES   REMARKS
CECIL FIELD      N/A     64  64 100 CALM      30.02S
HERLONG FIELD  NOT AVBL
FERNANDINA BCH NOT AVBL
LAKE CITY      FAIR      70  66  88 CALM      30.02F
JUNIPER SPGS   NOT AVBL
BUNNELL        NOT AVBL
KEYSTONE HGTS  FAIR      73  70  88 CALM      30.03S
$$

GAZ132>136-149>154-162>166-300600-
...GEORGIA...

CITY           SKY/WX    TMP DP  RH WIND       PRES   REMARKS
JESUP          FAIR      66  57  72 NW5       30.01S
HOMERVILLE     CLOUDY    70  68  94 CALM      30.02F
SWAINSBORO     FAIR      68  63  83 NW3       30.02F
CORDELE        NOT AVBL
EASTMAN        MOCLDY   N/A N/A N/A CALM      30.05F
$$

PLEASE NOTE:  THESE OBSERVATIONS ARE NOT QUALITY CONTROLLED AND MAY
NOT BE AVAILABLE AT ALL TIMES.
$$






000
SXUS52 KJAX 300213
OSOJAX
OTHER SURFACE OBSERVATIONS
NATIONAL WEATHER SERVICE JACKSONVILLE FL
1000 PM EDT SUN MAY 29 2016

FLZ020>025-030>033-035>038-040-300300-
...FLORIDA...

CITY           SKY/WX    TMP DP  RH WIND       PRES   REMARKS
CECIL FIELD      N/A     72  64  78 SE5       30.04R
HERLONG FIELD  NOT AVBL
FERNANDINA BCH NOT AVBL
LAKE CITY      FAIR      72  64  78 CALM      30.03R
JUNIPER SPGS   NOT AVBL
BUNNELL        NOT AVBL
KEYSTONE HGTS  FAIR      77  66  69 CALM      30.03R
$$

GAZ132>136-149>154-162>166-300300-
...GEORGIA...

CITY           SKY/WX    TMP DP  RH WIND       PRES   REMARKS
JESUP          FAIR      70  57  64 CALM      30.01R
HOMERVILLE     FAIR      73  68  83 CALM      30.03R
SWAINSBORO     CLOUDY    73  63  68 NW7       30.03R
CORDELE        NOT AVBL
EASTMAN        MOCLDY    72  72 100 CALM      30.05R
$$

PLEASE NOTE:  THESE OBSERVATIONS ARE NOT QUALITY CONTROLLED AND MAY
NOT BE AVAILABLE AT ALL TIMES.
$$






000
SXUS52 KJAX 292313
OSOJAX
OTHER SURFACE OBSERVATIONS
NATIONAL WEATHER SERVICE JACKSONVILLE FL
700 PM EDT SUN MAY 29 2016

FLZ020>025-030>033-035>038-040-300000-
...FLORIDA...

CITY           SKY/WX    TMP DP  RH WIND       PRES   REMARKS
CECIL FIELD    SUNNY     86  63  45 N9        29.99F
HERLONG FIELD  NOT AVBL
FERNANDINA BCH NOT AVBL
LAKE CITY      FAIR      88  57  35 N9        29.99F
JUNIPER SPGS   NOT AVBL
BUNNELL        NOT AVBL
KEYSTONE HGTS  FAIR      88  57  35 N7        29.99S
$$

GAZ132>136-149>154-162>166-300000-
...GEORGIA...

CITY           SKY/WX    TMP DP  RH WIND       PRES   REMARKS
JESUP          FAIR      79  55  44 NW12G18   29.99F
HOMERVILLE     FAIR      86  64  48 CALM      30.01S
SWAINSBORO     FAIR      77  61  57 NW9       30.01F
CORDELE        NOT AVBL
EASTMAN        FAIR      84  62  47 N3        30.04F
$$

PLEASE NOTE:  THESE OBSERVATIONS ARE NOT QUALITY CONTROLLED AND MAY
NOT BE AVAILABLE AT ALL TIMES.
$$






000
SXUS52 KJAX 292113
OSOJAX
OTHER SURFACE OBSERVATIONS
NATIONAL WEATHER SERVICE JACKSONVILLE FL
500 PM EDT SUN MAY 29 2016

FLZ020>025-030>033-035>038-040-292200-
...FLORIDA...

CITY           SKY/WX    TMP DP  RH WIND       PRES   REMARKS
CECIL FIELD    MOSUNNY   90  63  40 N12       30.01S
HERLONG FIELD  NOT AVBL
FERNANDINA BCH NOT AVBL
LAKE CITY      FAIR      88  63  42 NW10      30.01F
JUNIPER SPGS   NOT AVBL
BUNNELL        NOT AVBL
KEYSTONE HGTS  FAIR      90  57  33 NW6       30.01F
$$

GAZ132>136-149>154-162>166-292200-
...GEORGIA...

CITY           SKY/WX    TMP DP  RH WIND       PRES   REMARKS
JESUP          FAIR      79  57  47 NW14      30.02F
HOMERVILLE     FAIR      88  64  45 NW6       30.03F
SWAINSBORO     LGT RAIN  77  61  57 N10G17    30.04S
CORDELE        NOT AVBL
EASTMAN        FAIR      84  61  45 NE7       30.06F
$$

PLEASE NOTE:  THESE OBSERVATIONS ARE NOT QUALITY CONTROLLED AND MAY
NOT BE AVAILABLE AT ALL TIMES.
$$






000
SXUS52 KJAX 291313
OSOJAX
OTHER SURFACE OBSERVATIONS
NATIONAL WEATHER SERVICE JACKSONVILLE FL
900 AM EDT SUN MAY 29 2016

FLZ020>025-030>033-035>038-040-291400-
...FLORIDA...

CITY           SKY/WX    TMP DP  RH WIND       PRES   REMARKS
CECIL FIELD    SUNNY     73  66  78 NW5       30.09R
HERLONG FIELD  NOT AVBL
FERNANDINA BCH NOT AVBL
LAKE CITY      FAIR      72  68  88 CALM      30.10R
JUNIPER SPGS   NOT AVBL
BUNNELL        NOT AVBL
KEYSTONE HGTS  FAIR      75  68  78 NW3       30.09R
$$

GAZ132>136-149>154-162>166-291400-
...GEORGIA...

CITY           SKY/WX    TMP DP  RH WIND       PRES   REMARKS
JESUP          PTSUNNY   68  63  83 NE13      30.07R
HOMERVILLE     FAIR      73  68  83 NW5       30.10R
SWAINSBORO     LGT RAIN  68  64  88 NW8       30.09R
CORDELE        NOT AVBL
EASTMAN        FAIR      71  71 100 NW5       30.12S
$$

PLEASE NOTE:  THESE OBSERVATIONS ARE NOT QUALITY CONTROLLED AND MAY
NOT BE AVAILABLE AT ALL TIMES.
$$






000
SXUS52 KJAX 291113
OSOJAX
OTHER SURFACE OBSERVATIONS
NATIONAL WEATHER SERVICE JACKSONVILLE FL
700 AM EDT SUN MAY 29 2016

FLZ020>025-030>033-035>038-040-291200-
...FLORIDA...

CITY           SKY/WX    TMP DP  RH WIND       PRES   REMARKS
CECIL FIELD    CLEAR     63  63 100 CALM      30.05F
HERLONG FIELD  NOT AVBL
FERNANDINA BCH NOT AVBL
LAKE CITY      FAIR      63  63 100 CALM      30.07R
JUNIPER SPGS   NOT AVBL
BUNNELL        NOT AVBL
KEYSTONE HGTS  FAIR      63  63 100 CALM      30.07R
$$

GAZ132>136-149>154-162>166-291200-
...GEORGIA...

CITY           SKY/WX    TMP DP  RH WIND       PRES   REMARKS
JESUP          FAIR      63  61  94 NE5       30.04S
HOMERVILLE     FAIR      63  63 100 CALM      30.08R
SWAINSBORO     RAIN      66  64  94 N3        30.08R
CORDELE        NOT AVBL
EASTMAN        FAIR      66  66 100 CALM      30.11R
$$

PLEASE NOTE:  THESE OBSERVATIONS ARE NOT QUALITY CONTROLLED AND MAY
NOT BE AVAILABLE AT ALL TIMES.
$$






000
SXUS52 KJAX 290913
OSOJAX
OTHER SURFACE OBSERVATIONS
NATIONAL WEATHER SERVICE JACKSONVILLE FL
500 AM EDT SUN MAY 29 2016

FLZ020>025-030>033-035>038-040-291000-
...FLORIDA...

CITY           SKY/WX    TMP DP  RH WIND       PRES   REMARKS
CECIL FIELD      N/A     63  63 100 CALM      30.04S
HERLONG FIELD  NOT AVBL
FERNANDINA BCH NOT AVBL
LAKE CITY      FAIR      66  66 100 CALM      30.05R
JUNIPER SPGS   NOT AVBL
BUNNELL        NOT AVBL
KEYSTONE HGTS  FAIR      64  64 100 CALM      30.05S
$$

GAZ132>136-149>154-162>166-291000-
...GEORGIA...

CITY           SKY/WX    TMP DP  RH WIND       PRES   REMARKS
JESUP          FAIR      63  61  94 NE3       30.02S
HOMERVILLE     FAIR      63  63 100 W3        30.05R
SWAINSBORO     DRIZZLE   66  64  94 N3        30.05R
CORDELE        NOT AVBL
EASTMAN        FAIR      65  65 100 CALM      30.08R
$$

PLEASE NOTE:  THESE OBSERVATIONS ARE NOT QUALITY CONTROLLED AND MAY
NOT BE AVAILABLE AT ALL TIMES.
$$






000
SXUS52 KJAX 290813
OSOJAX
OTHER SURFACE OBSERVATIONS
NATIONAL WEATHER SERVICE JACKSONVILLE FL
400 AM EDT SUN MAY 29 2016

FLZ020>025-030>033-035>038-040-290900-
...FLORIDA...

CITY           SKY/WX    TMP DP  RH WIND       PRES   REMARKS
CECIL FIELD      N/A     63  63 100 CALM      30.04S
HERLONG FIELD  NOT AVBL
FERNANDINA BCH NOT AVBL
LAKE CITY      PTSUNNY   66  66 100 CALM      30.05S
JUNIPER SPGS   NOT AVBL
BUNNELL        NOT AVBL
KEYSTONE HGTS  FAIR      64  64 100 CALM      30.04F
$$

GAZ132>136-149>154-162>166-290900-
...GEORGIA...

CITY           SKY/WX    TMP DP  RH WIND       PRES   REMARKS
JESUP          FAIR      63  61  94 NE3       30.02S
HOMERVILLE     FAIR      64  64 100 CALM      30.05S
SWAINSBORO     DRIZZLE   66  64  94 NW5       30.05S
CORDELE        NOT AVBL
EASTMAN        FAIR      68  68 100 CALM      30.07F
$$

PLEASE NOTE:  THESE OBSERVATIONS ARE NOT QUALITY CONTROLLED AND MAY
NOT BE AVAILABLE AT ALL TIMES.
$$






000
SXUS52 KJAX 290713
OSOJAX
OTHER SURFACE OBSERVATIONS
NATIONAL WEATHER SERVICE JACKSONVILLE FL
300 AM EDT SUN MAY 29 2016

FLZ020>025-030>033-035>038-040-290800-
...FLORIDA...

CITY           SKY/WX    TMP DP  RH WIND       PRES   REMARKS
CECIL FIELD      N/A     64  64 100 CALM      30.05S
HERLONG FIELD  NOT AVBL
FERNANDINA BCH NOT AVBL
LAKE CITY      FAIR      64  64 100 CALM      30.05F
JUNIPER SPGS   NOT AVBL
BUNNELL        NOT AVBL
KEYSTONE HGTS  FAIR      66  66 100 CALM      30.05F
$$

GAZ132>136-149>154-162>166-290800-
...GEORGIA...

CITY           SKY/WX    TMP DP  RH WIND       PRES   REMARKS
JESUP          FAIR      64  61  88 N5        30.02F
HOMERVILLE     FAIR      68  64  88 CALM      30.05F
SWAINSBORO     CLOUDY    70  63  78 NE7       30.06F
CORDELE        NOT AVBL
EASTMAN        CLOUDY    69  65  89 CALM      30.09F
$$

PLEASE NOTE:  THESE OBSERVATIONS ARE NOT QUALITY CONTROLLED AND MAY
NOT BE AVAILABLE AT ALL TIMES.
$$






000
SXUS52 KJAX 290613
OSOJAX
OTHER SURFACE OBSERVATIONS
NATIONAL WEATHER SERVICE JACKSONVILLE FL
200 AM EDT SUN MAY 29 2016

FLZ020>025-030>033-035>038-040-290700-
...FLORIDA...

CITY           SKY/WX    TMP DP  RH WIND       PRES   REMARKS
CECIL FIELD      N/A     64  64 100 CALM      30.05F
HERLONG FIELD  NOT AVBL
FERNANDINA BCH NOT AVBL
LAKE CITY      FAIR      68  68 100 CALM      30.06F
JUNIPER SPGS   NOT AVBL
BUNNELL        NOT AVBL
KEYSTONE HGTS  FAIR      66  66 100 CALM      30.07S
$$

GAZ132>136-149>154-162>166-290700-
...GEORGIA...

CITY           SKY/WX    TMP DP  RH WIND       PRES   REMARKS
JESUP          FAIR      64  61  88 NE6       30.04F
HOMERVILLE     FAIR      68  66  94 CALM      30.06F
SWAINSBORO     CLOUDY    68  63  83 N3        30.09F
CORDELE        NOT AVBL
EASTMAN        FAIR      71  64  79 CALM      30.11F
$$

PLEASE NOTE:  THESE OBSERVATIONS ARE NOT QUALITY CONTROLLED AND MAY
NOT BE AVAILABLE AT ALL TIMES.
$$






000
SXUS52 KJAX 290413
OSOJAX
OTHER SURFACE OBSERVATIONS
NATIONAL WEATHER SERVICE JACKSONVILLE FL
1200 AM EDT SUN MAY 29 2016

FLZ020>025-030>033-035>038-040-290500-
...FLORIDA...

CITY           SKY/WX    TMP DP  RH WIND       PRES   REMARKS
CECIL FIELD      N/A     68  66  94 CALM      30.06S
HERLONG FIELD  NOT AVBL
FERNANDINA BCH NOT AVBL
LAKE CITY      FAIR      72  70  94 CALM      30.06S
JUNIPER SPGS   NOT AVBL
BUNNELL        NOT AVBL
KEYSTONE HGTS  FAIR      70  70 100 CALM      30.06S
$$

GAZ132>136-149>154-162>166-290500-
...GEORGIA...

CITY           SKY/WX    TMP DP  RH WIND       PRES   REMARKS
JESUP          FAIR      66  63  88 N5        30.08R
HOMERVILLE     FAIR      72  68  88 CALM      30.07F
SWAINSBORO     CLOUDY    68  66  94 CALM      30.11F
CORDELE        NOT AVBL
EASTMAN        CLOUDY    74  67  77 E7        30.12S
$$

PLEASE NOTE:  THESE OBSERVATIONS ARE NOT QUALITY CONTROLLED AND MAY
NOT BE AVAILABLE AT ALL TIMES.
$$






000
SXUS52 KJAX 290313
OSOJAX
OTHER SURFACE OBSERVATIONS
NATIONAL WEATHER SERVICE JACKSONVILLE FL
1100 PM EDT SAT MAY 28 2016

FLZ020>025-030>033-035>038-040-290400-
...FLORIDA...

CITY           SKY/WX    TMP DP  RH WIND       PRES   REMARKS
CECIL FIELD      N/A     72  66  83 N6        30.06S
HERLONG FIELD  NOT AVBL
FERNANDINA BCH NOT AVBL
LAKE CITY      FAIR      73  70  88 E3        30.07R
JUNIPER SPGS   NOT AVBL
BUNNELL        NOT AVBL
KEYSTONE HGTS  FAIR      73  70  88 CALM      30.06S
$$

GAZ132>136-149>154-162>166-290400-
...GEORGIA...

CITY           SKY/WX    TMP DP  RH WIND       PRES   REMARKS
JESUP          FAIR      68  63  83 N6        30.07R
HOMERVILLE     FAIR      73  68  83 E5        30.08R
SWAINSBORO     MOCLDY    70  66  88 CALM      30.12S
CORDELE        NOT AVBL
EASTMAN        CLOUDY    76  67  74 E6        30.12S
$$

PLEASE NOTE:  THESE OBSERVATIONS ARE NOT QUALITY CONTROLLED AND MAY
NOT BE AVAILABLE AT ALL TIMES.
$$






000
SXUS52 KJAX 290013
OSOJAX
OTHER SURFACE OBSERVATIONS
NATIONAL WEATHER SERVICE JACKSONVILLE FL
800 PM EDT SAT MAY 28 2016

FLZ020>025-030>033-035>038-040-290100-
...FLORIDA...

CITY           SKY/WX    TMP DP  RH WIND       PRES   REMARKS
CECIL FIELD    PTCLDY    79  68  69 NE9       30.03R
HERLONG FIELD  NOT AVBL
FERNANDINA BCH NOT AVBL
LAKE CITY      FAIR      81  68  65 E5        30.01R
JUNIPER SPGS   NOT AVBL
BUNNELL        NOT AVBL
KEYSTONE HGTS  FAIR      81  66  61 NE8       30.02R
$$

GAZ132>136-149>154-162>166-290100-
...GEORGIA...

CITY           SKY/WX    TMP DP  RH WIND       PRES   REMARKS
JESUP          FAIR      70  63  78 E7        30.06S
HOMERVILLE     FAIR      82  66  57 NE6       30.03R
SWAINSBORO     FAIR      73  68  83 NE8       30.09R
CORDELE        NOT AVBL
EASTMAN        FAIR      83  64  53 NE8       30.08R
$$

PLEASE NOTE:  THESE OBSERVATIONS ARE NOT QUALITY CONTROLLED AND MAY
NOT BE AVAILABLE AT ALL TIMES.
$$






000
SXUS52 KJAX 281913
OSOJAX
OTHER SURFACE OBSERVATIONS
NATIONAL WEATHER SERVICE JACKSONVILLE FL
300 PM EDT SAT MAY 28 2016

FLZ020>025-030>033-035>038-040-282000-
...FLORIDA...

CITY           SKY/WX    TMP DP  RH WIND       PRES   REMARKS
CECIL FIELD    PTSUNNY   82  72  69 NE12G17   30.03S
HERLONG FIELD  NOT AVBL
FERNANDINA BCH NOT AVBL
LAKE CITY      MOCLDY    86  64  48 N10       30.02F
JUNIPER SPGS   NOT AVBL
BUNNELL        NOT AVBL
KEYSTONE HGTS  FAIR      90  59  35 N6        30.01F
$$

GAZ132>136-149>154-162>166-282000-
...GEORGIA...

CITY           SKY/WX    TMP DP  RH WIND       PRES   REMARKS
JESUP          MOCLDY    81  64  57 NE10      30.06S
HOMERVILLE     FAIR      88  61  40 CALM      30.05F
SWAINSBORO     LGT RAIN  75  70  83 E5        30.11S
CORDELE        NOT AVBL
EASTMAN        MOCLDY    86  62  44 E7        30.10S
$$

PLEASE NOTE:  THESE OBSERVATIONS ARE NOT QUALITY CONTROLLED AND MAY
NOT BE AVAILABLE AT ALL TIMES.
$$






000
SXUS52 KJAX 281613
OSOJAX
OTHER SURFACE OBSERVATIONS
NATIONAL WEATHER SERVICE JACKSONVILLE FL
1200 PM EDT SAT MAY 28 2016

FLZ020>025-030>033-035>038-040-281700-
...FLORIDA...

CITY           SKY/WX    TMP DP  RH WIND       PRES   REMARKS
CECIL FIELD    PTSUNNY   82  68  61 NE7       30.07F
HERLONG FIELD  NOT AVBL
FERNANDINA BCH NOT AVBL
LAKE CITY      FAIR      81  64  57 CALM      30.08F
JUNIPER SPGS   NOT AVBL
BUNNELL        NOT AVBL
KEYSTONE HGTS  PTSUNNY   84  66  54 CALM      30.08S
$$

GAZ132>136-149>154-162>166-281700-
...GEORGIA...

CITY           SKY/WX    TMP DP  RH WIND       PRES   REMARKS
JESUP          PTSUNNY   81  66  61 NE7       30.11S
HOMERVILLE     PTSUNNY   82  68  61 N7        30.10F
SWAINSBORO     FAIR      81  64  57 E8        30.14F
CORDELE        NOT AVBL
EASTMAN        PTSUNNY   82  63  53 N5        30.15F
$$

PLEASE NOTE:  THESE OBSERVATIONS ARE NOT QUALITY CONTROLLED AND MAY
NOT BE AVAILABLE AT ALL TIMES.
$$






000
SXUS52 KJAX 281213
OSOJAX
OTHER SURFACE OBSERVATIONS
NATIONAL WEATHER SERVICE JACKSONVILLE FL
800 AM EDT SAT MAY 28 2016

FLZ020>025-030>033-035>038-040-281300-
...FLORIDA...

CITY           SKY/WX    TMP DP  RH WIND       PRES   REMARKS
CECIL FIELD    MOSUNNY   68  66  94 CALM      30.07R
HERLONG FIELD  NOT AVBL
FERNANDINA BCH NOT AVBL
LAKE CITY      FAIR      68  68 100 NE5       30.08R
JUNIPER SPGS   NOT AVBL
BUNNELL        NOT AVBL
KEYSTONE HGTS  FAIR      68  68 100 CALM      30.08R
$$

GAZ132>136-149>154-162>166-281300-
...GEORGIA...

CITY           SKY/WX    TMP DP  RH WIND       PRES   REMARKS
JESUP          FAIR      64  63  94 CALM      30.10R
HOMERVILLE     FAIR      68  68 100 NE3       30.10R
SWAINSBORO     FAIR      66  63  88 NE6       30.13R
CORDELE        NOT AVBL
EASTMAN        FAIR     N/A N/A N/A CALM      30.14R
$$

PLEASE NOTE:  THESE OBSERVATIONS ARE NOT QUALITY CONTROLLED AND MAY
NOT BE AVAILABLE AT ALL TIMES.
$$






000
SXUS52 KJAX 281113
OSOJAX
OTHER SURFACE OBSERVATIONS
NATIONAL WEATHER SERVICE JACKSONVILLE FL
700 AM EDT SAT MAY 28 2016

FLZ020>025-030>033-035>038-040-281200-
...FLORIDA...

CITY           SKY/WX    TMP DP  RH WIND       PRES   REMARKS
CECIL FIELD    PTCLDY    64  64 100 CALM      30.06R
HERLONG FIELD  NOT AVBL
FERNANDINA BCH NOT AVBL
LAKE CITY      FAIR      63  63 100 N3        30.07R
JUNIPER SPGS   NOT AVBL
BUNNELL        NOT AVBL
KEYSTONE HGTS  FAIR      64  64 100 CALM      30.06R
$$

GAZ132>136-149>154-162>166-281200-
...GEORGIA...

CITY           SKY/WX    TMP DP  RH WIND       PRES   REMARKS
JESUP          FAIR      63  63 100 CALM      30.08R FOG
HOMERVILLE     FAIR      63  63 100 CALM      30.08R
SWAINSBORO     FAIR      64  63  94 NE3       30.11R
CORDELE        NOT AVBL
EASTMAN        FOG       60  60 100 CALM      30.13R VSB 1
$$

PLEASE NOTE:  THESE OBSERVATIONS ARE NOT QUALITY CONTROLLED AND MAY
NOT BE AVAILABLE AT ALL TIMES.
$$






000
SXUS52 KJAX 280513
OSOJAX
OTHER SURFACE OBSERVATIONS
NATIONAL WEATHER SERVICE JACKSONVILLE FL
100 AM EDT SAT MAY 28 2016

FLZ020>025-030>033-035>038-040-280600-
...FLORIDA...

CITY           SKY/WX    TMP DP  RH WIND       PRES   REMARKS
CECIL FIELD      N/A     64  64 100 CALM      30.05S
HERLONG FIELD  NOT AVBL
FERNANDINA BCH NOT AVBL
LAKE CITY      FAIR      70  66  88 CALM      30.05S
JUNIPER SPGS   NOT AVBL
BUNNELL        NOT AVBL
KEYSTONE HGTS  FAIR      66  66 100 CALM      30.05S
$$

GAZ132>136-149>154-162>166-280600-
...GEORGIA...

CITY           SKY/WX    TMP DP  RH WIND       PRES   REMARKS
JESUP          FAIR      63  63 100 CALM      30.08S
HOMERVILLE     FAIR      70  64  83 CALM      30.07S
SWAINSBORO     FAIR      68  61  77 CALM      30.10F
CORDELE        NOT AVBL
EASTMAN        FAIR      66  62  87 CALM      30.11F
$$

PLEASE NOTE:  THESE OBSERVATIONS ARE NOT QUALITY CONTROLLED AND MAY
NOT BE AVAILABLE AT ALL TIMES.
$$






000
SXUS52 KJAX 280313
OSOJAX
OTHER SURFACE OBSERVATIONS
NATIONAL WEATHER SERVICE JACKSONVILLE FL
1100 PM EDT FRI MAY 27 2016

FLZ020>025-030>033-035>038-040-280400-
...FLORIDA...

CITY           SKY/WX    TMP DP  RH WIND       PRES   REMARKS
CECIL FIELD      N/A     72  66  83 CALM      30.05S
HERLONG FIELD  NOT AVBL
FERNANDINA BCH NOT AVBL
LAKE CITY      FAIR      72  68  88 E3        30.05R
JUNIPER SPGS   NOT AVBL
BUNNELL        NOT AVBL
KEYSTONE HGTS  FAIR      72  66  83 CALM      30.05R
$$

GAZ132>136-149>154-162>166-280400-
...GEORGIA...

CITY           SKY/WX    TMP DP  RH WIND       PRES   REMARKS
JESUP          FAIR      66  63  88 E3        30.08R
HOMERVILLE     FAIR      73  64  73 E7        30.06S
SWAINSBORO     FAIR      72  61  68 SE6       30.10R
CORDELE        NOT AVBL
EASTMAN        FAIR      73  62  66 SE5       30.10R
$$

PLEASE NOTE:  THESE OBSERVATIONS ARE NOT QUALITY CONTROLLED AND MAY
NOT BE AVAILABLE AT ALL TIMES.
$$






000
SXUS52 KJAX 280013
OSOJAX
OTHER SURFACE OBSERVATIONS
NATIONAL WEATHER SERVICE JACKSONVILLE FL
800 PM EDT FRI MAY 27 2016

FLZ020>025-030>033-035>038-040-280100-
...FLORIDA...

CITY           SKY/WX    TMP DP  RH WIND       PRES   REMARKS
CECIL FIELD    MOCLDY    77  68  73 E12       30.02R
HERLONG FIELD  NOT AVBL
FERNANDINA BCH NOT AVBL
LAKE CITY      FAIR      79  64  61 E5        30.01R
JUNIPER SPGS   NOT AVBL
BUNNELL        NOT AVBL
KEYSTONE HGTS  FAIR      79  63  57 E9        30.01R
$$

GAZ132>136-149>154-162>166-280100-
...GEORGIA...

CITY           SKY/WX    TMP DP  RH WIND       PRES   REMARKS
JESUP          FAIR      73  63  68 SE6       30.05R
HOMERVILLE     FAIR      79  64  61 E9        30.03R
SWAINSBORO     FAIR      82  54  36 SE9       30.05R
CORDELE        NOT AVBL
EASTMAN        FAIR      83  56  39 SE7       30.05R
$$

PLEASE NOTE:  THESE OBSERVATIONS ARE NOT QUALITY CONTROLLED AND MAY
NOT BE AVAILABLE AT ALL TIMES.
$$






000
SXUS52 KJAX 271813
OSOJAX
OTHER SURFACE OBSERVATIONS
NATIONAL WEATHER SERVICE JACKSONVILLE FL
200 PM EDT FRI MAY 27 2016

FLZ020>025-030>033-035>038-040-271900-
...FLORIDA...

CITY           SKY/WX    TMP DP  RH WIND       PRES   REMARKS
CECIL FIELD    PTSUNNY   81  64  57 E13       30.07F
HERLONG FIELD  NOT AVBL
FERNANDINA BCH NOT AVBL
LAKE CITY      FAIR      82  59  44 E7        30.05F
JUNIPER SPGS   NOT AVBL
BUNNELL        NOT AVBL
KEYSTONE HGTS  FAIR      84  54  34 NE14      30.04F
$$

GAZ132>136-149>154-162>166-271900-
...GEORGIA...

CITY           SKY/WX    TMP DP  RH WIND       PRES   REMARKS
JESUP          MOCLDY    79  59  50 SE9       30.09F
HOMERVILLE     FAIR      84  61  45 SE8       30.08F
SWAINSBORO     FAIR      86  55  35 E8        30.10F
CORDELE        NOT AVBL
EASTMAN        FAIR      88  55  33 SE8G16    30.11F
$$

PLEASE NOTE:  THESE OBSERVATIONS ARE NOT QUALITY CONTROLLED AND MAY
NOT BE AVAILABLE AT ALL TIMES.
$$






000
SXUS52 KJAX 271213
OSOJAX
OTHER SURFACE OBSERVATIONS
NATIONAL WEATHER SERVICE JACKSONVILLE FL
800 AM EDT FRI MAY 27 2016

FLZ020>025-030>033-035>038-040-271300-
...FLORIDA...

CITY           SKY/WX    TMP DP  RH WIND       PRES   REMARKS
CECIL FIELD    SUNNY     64  63  94 N5        30.09R
HERLONG FIELD  NOT AVBL
FERNANDINA BCH NOT AVBL
LAKE CITY      FAIR      66  64  94 NE5       30.09R
JUNIPER SPGS   NOT AVBL
BUNNELL        NOT AVBL
KEYSTONE HGTS  FAIR      72  66  83 CALM      30.08R
$$

GAZ132>136-149>154-162>166-271300-
...GEORGIA...

CITY           SKY/WX    TMP DP  RH WIND       PRES   REMARKS
JESUP          FAIR      63  61  94 CALM      30.11F
HOMERVILLE     FAIR      64  63  94 E3        30.11R
SWAINSBORO     FAIR      68  63  83 CALM      30.14R
CORDELE        NOT AVBL
EASTMAN        FAIR      69  67  94 CALM      30.15R
$$

PLEASE NOTE:  THESE OBSERVATIONS ARE NOT QUALITY CONTROLLED AND MAY
NOT BE AVAILABLE AT ALL TIMES.
$$






    US Dept of Commerce
    National Oceanic and Atmospheric Administration
    National Weather Service
    1325 East West Highway
    Silver Spring, MD 20910
    Page Author: NWS Internet Services Team
Disclaimer
Information Quality
Credits
Glossary
Privacy Policy
Freedom of Information Act (FOIA)
About Us
Career Opportunities